Date String (YYYY-MM-DD hh:mm:ss) UTC,Instrument flags,Ambient pressure (hPa),Sample flow (lpm),Bypass flow (lpm),Sample temperature (°C),Ambient temperature (°C),ASC tube jacket temperature (°C),LED temperature (°C),Box temperature (°C),Sample RH (%),Span deviation,Mass concentration (μg/m³),Mass concentration (μg/m³),Mass concentration (μg/m³)
DateTimeUTC,F1_M11,P_M11,Q1_M11,Q2_M11,T1_M11,T2_M11,T3_M11,T4_M11,T5_M11,U1_M11,ZSPAN_M11,X0_M11,X2_M11,X1_M11
2021-10-27 05:00:00,,0819.2,5.01,0.00,25.2,24.4,00.0,34.5,27.0,18.6,0000.0,0010.90,0001.77,0000.48
2021-10-27 05:01:00,,0819.2,5.01,0.00,25.2,24.5,00.0,34.4,27.0,18.6,0000.0,0010.65,0001.77,0000.47
2021-10-27 05:02:00,,0819.1,5.00,0.00,25.2,24.5,00.0,34.4,27.0,18.6,0000.0,0011.18,0001.78,0000.46
2021-10-27 05:03:00,,0819.2,5.00,0.00,25.2,24.5,00.0,34.4,27.0,18.6,0000.0,0011.11,0001.76,0000.47
2021-10-27 05:04:00,,0819.1,5.00,0.00,25.2,24.5,00.0,34.4,27.1,18.6,0000.0,0011.05,0001.72,0000.46
2021-10-27 05:05:00,,0819.1,5.00,0.00,25.3,24.6,00.0,34.4,27.1,18.6,0000.0,0011.80,0001.68,0000.45
2021-10-27 05:06:00,,0819.2,5.00,0.00,25.3,24.6,00.0,34.4,27.1,18.6,0000.0,0010.99,0001.62,0000.44
2021-10-27 05:07:00,,0819.2,5.00,0.00,25.3,24.6,00.0,34.4,27.1,18.6,0000.0,0010.44,0001.56,0000.43
2021-10-27 05:08:00,,0819.1,4.99,0.00,25.3,24.7,00.0,34.4,27.1,18.6,0000.0,0010.62,0001.50,0000.43
2021-10-27 05:09:00,,0819.1,5.00,0.00,25.3,24.7,00.0,34.4,27.1,18.6,0000.0,0010.50,0001.51,0000.44
2021-10-27 05:10:00,,0819.2,5.00,0.00,25.3,24.7,00.0,34.4,27.2,18.6,0000.0,0010.47,0001.54,0000.42
2021-10-27 05:11:00,,0819.1,5.00,0.00,25.3,24.7,00.0,34.4,27.2,18.6,0000.0,0010.36,0001.56,0000.41
2021-10-27 05:12:00,,0819.1,4.99,0.00,25.3,24.8,00.0,34.4,27.2,18.6,0000.0,0010.09,0001.55,0000.40
2021-10-27 05:13:00,,0819.2,4.99,0.00,25.3,24.7,00.0,34.4,27.2,18.7,0000.0,0009.69,0001.58,0000.40
2021-10-27 05:14:00,,0819.2,4.99,0.00,25.3,24.7,00.0,34.4,27.1,18.8,0000.0,0009.66,0001.56,0000.38
2021-10-27 05:15:00,,0819.2,5.01,0.00,25.3,24.6,00.0,34.4,27.1,18.9,0000.0,0009.22,0001.58,0000.39
2021-10-27 05:16:00,,0819.2,5.00,0.00,25.3,24.5,00.0,34.4,27.1,19.0,0000.0,0008.74,0001.63,0000.39
2021-10-27 05:17:00,,0819.2,5.01,0.00,25.3,24.5,00.0,34.4,27.0,19.1,0000.0,0008.91,0001.66,0000.39
2021-10-27 05:18:00,,0819.3,4.99,0.00,25.2,24.5,00.0,34.4,27.0,19.1,0000.0,0008.91,0001.73,0000.39
2021-10-27 05:19:00,,0819.3,5.01,0.00,25.2,24.5,00.0,34.4,27.0,19.2,0000.0,0008.50,0001.73,0000.38
2021-10-27 05:20:00,,0819.3,5.00,0.00,25.2,24.4,00.0,34.4,27.0,19.2,0000.0,0008.56,0001.71,0000.38
2021-10-27 05:21:00,,0819.3,4.99,0.00,25.2,24.4,00.0,34.4,26.9,19.3,0000.0,0008.70,0001.69,0000.39
2021-10-27 05:22:00,,0819.3,5.02,0.00,25.2,24.4,00.0,34.4,27.0,19.3,0000.0,0008.32,0001.67,0000.39
2021-10-27 05:23:00,,0819.3,4.99,0.00,25.2,24.4,00.0,34.4,27.0,19.2,0000.0,0008.00,0001.66,0000.40
2021-10-27 05:24:00,,0819.2,5.01,0.00,25.2,24.4,00.0,34.3,27.0,19.2,0000.0,0007.80,0001.61,0000.41
2021-10-27 05:25:00,,0819.2,4.99,0.00,25.1,24.4,00.0,34.3,27.0,19.2,0000.0,0007.80,0001.63,0000.41
2021-10-27 05:26:00,,0819.2,5.00,0.00,25.2,24.4,00.0,34.3,27.0,19.0,0000.0,0008.06,0001.60,0000.40
2021-10-27 05:27:00,,0819.3,4.99,0.00,25.2,24.4,00.0,34.3,27.0,18.9,0000.0,0008.14,0001.53,0000.38
2021-10-27 05:28:00,,0819.2,5.00,0.00,25.1,24.4,00.0,34.3,27.0,18.9,0000.0,0008.49,0001.56,0000.38
2021-10-27 05:29:00,,0819.3,5.00,0.00,25.2,24.5,00.0,34.3,27.0,18.9,0000.0,0008.27,0001.50,0000.38
2021-10-27 05:30:00,,0819.3,5.00,0.00,25.2,24.5,00.0,34.3,27.0,18.8,0000.0,0008.20,0001.49,0000.38
2021-10-27 05:31:00,,0819.3,5.00,0.00,25.2,24.6,00.0,34.3,27.0,18.8,0000.0,0008.19,0001.48,0000.37
2021-10-27 05:32:00,,0819.4,4.99,0.00,25.2,24.6,00.0,34.3,27.0,18.7,0000.0,0007.70,0001.46,0000.37
2021-10-27 05:33:00,,0819.4,5.00,0.00,25.2,24.6,00.0,34.3,27.0,18.6,0000.0,0007.64,0001.36,0000.35
2021-10-27 05:34:00,,0819.4,5.00,0.00,25.2,24.6,00.0,34.3,27.1,18.6,0000.0,0007.72,0001.31,0000.34
2021-10-27 05:35:00,,0819.4,5.00,0.00,25.2,24.6,00.0,34.3,27.0,18.6,0000.0,0007.87,0001.34,0000.34
2021-10-27 05:36:00,,0819.4,5.00,0.00,25.2,24.6,00.0,34.3,27.0,18.6,0000.0,0007.50,0001.35,0000.33
2021-10-27 05:37:00,,0819.4,5.00,0.00,25.2,24.6,00.0,34.3,27.1,18.6,0000.0,0007.18,0001.34,0000.33
2021-10-27 05:38:00,,0819.4,5.00,0.00,25.2,24.6,00.0,34.3,27.1,18.7,0000.0,0006.54,0001.35,0000.33
2021-10-27 05:39:00,,0819.4,5.01,0.00,25.2,24.6,00.0,34.3,27.1,18.7,0000.0,0005.78,0001.34,0000.33
2021-10-27 05:40:00,,0819.4,5.00,0.00,25.2,24.6,00.0,34.3,27.1,18.8,0000.0,0006.16,0001.43,0000.34
2021-10-27 05:41:00,,0819.4,5.00,0.00,25.2,24.6,00.0,34.3,27.1,18.8,0000.0,0007.16,0001.46,0000.34
2021-10-27 05:42:00,,0819.5,5.01,0.00,25.2,24.6,00.0,34.3,27.1,18.8,0000.0,0006.68,0001.41,0000.34
2021-10-27 05:43:00,,0819.5,5.00,0.00,25.2,24.6,00.0,34.3,27.1,18.8,0000.0,0007.43,0001.43,0000.35
2021-10-27 05:44:00,,0819.4,4.98,0.00,25.2,24.7,00.0,34.3,27.1,18.8,0000.0,0008.43,0001.49,0000.35
2021-10-27 05:45:00,,0819.4,5.00,0.00,25.3,24.6,00.0,34.3,27.1,18.8,0000.0,0008.41,0001.51,0000.35
2021-10-27 05:46:00,,0819.4,5.00,0.00,25.2,24.6,00.0,34.3,27.1,18.7,0000.0,0008.35,0001.48,0000.35
2021-10-27 05:47:00,,0819.5,5.00,0.00,25.3,24.6,00.0,34.3,27.1,18.7,0000.0,0008.18,0001.44,0000.35
2021-10-27 05:48:00,,0819.5,5.00,0.00,25.3,24.7,00.0,34.3,27.1,18.7,0000.0,0008.22,0001.39,0000.35
2021-10-27 05:49:00,,0819.4,4.99,0.00,25.3,24.7,00.0,34.3,27.2,18.6,0000.0,0008.23,0001.36,0000.35
2021-10-27 05:50:00,,0819.5,5.00,0.00,25.3,24.7,00.0,34.3,27.2,18.6,0000.0,0008.17,0001.33,0000.36
2021-10-27 05:51:00,,0819.5,5.01,0.00,25.3,24.7,00.0,34.3,27.2,18.6,0000.0,0007.79,0001.26,0000.37
2021-10-27 05:52:00,,0819.5,5.01,0.00,25.3,24.7,00.0,34.3,27.2,18.6,0000.0,0007.29,0001.26,0000.39
2021-10-27 05:53:00,,0819.5,5.00,0.00,25.3,24.7,00.0,34.3,27.2,18.6,0000.0,0007.36,0001.30,0000.41
2021-10-27 05:54:00,,0819.5,4.99,0.00,25.3,24.7,00.0,34.4,27.2,18.6,0000.0,0006.06,0001.27,0000.43
2021-10-27 05:55:00,,0819.5,5.01,0.00,25.3,24.7,00.0,34.4,27.2,18.7,0000.0,0005.55,0001.29,0000.45
2021-10-27 05:56:00,,0819.5,5.00,0.00,25.3,24.6,00.0,34.4,27.1,18.7,0000.0,0007.01,0001.30,0000.47
2021-10-27 05:57:00,,0819.4,5.01,0.00,25.3,24.5,00.0,34.3,27.1,18.7,0000.0,0007.51,0001.33,0000.49
2021-10-27 05:58:00,,0819.4,5.00,0.00,25.2,24.4,00.0,34.3,27.1,18.7,0000.0,0007.54,0001.33,0000.51
2021-10-27 05:59:00,,0819.4,5.02,0.00,25.2,24.4,00.0,34.3,27.0,18.8,0000.0,0007.50,0001.38,0000.53
